Time,TemperatureF,DewpointF,PressureIn,WindDirection,WindDirectionDegrees,WindSpeedMPH,WindSpeedGustMPH,Humidity,HourlyPrecipIn,Conditions,Clouds,dailyrainin,SoftwareType,DateUTC
2013-03-16 00:00:00,30.2,26.0,29.35,North,0,0.0,0.0,84,0.00,,,0.00,WUHU216HW,2013-03-16 04:00:00,
2013-03-16 00:05:00,30.1,25.6,29.36,North,0,0.0,0.0,83,0.00,,,0.00,WUHU216HW,2013-03-16 04:05:00,
2013-03-16 00:10:00,30.1,25.6,29.36,North,0,0.0,0.0,83,0.00,,,0.00,WUHU216HW,2013-03-16 04:10:00,
2013-03-16 00:15:00,30.1,25.6,29.36,North,0,0.0,0.0,83,0.00,,,0.00,WUHU216HW,2013-03-16 04:15:00,
2013-03-16 00:20:00,29.9,25.4,29.36,North,0,0.0,0.0,83,0.00,,,0.00,WUHU216HW,2013-03-16 04:20:00,
2013-03-16 00:26:00,29.9,25.4,29.36,North,0,0.0,0.0,83,0.00,,,0.00,WUHU216HW,2013-03-16 04:26:00,
2013-03-16 00:31:00,29.9,24.8,29.37,North,0,0.0,0.0,81,0.00,,,0.00,WUHU216HW,2013-03-16 04:31:00,
2013-03-16 00:36:00,29.7,23.9,29.36,North,0,0.0,0.0,79,0.00,,,0.00,WUHU216HW,2013-03-16 04:36:00,
2013-03-16 00:41:00,29.7,23.7,29.36,North,0,0.0,0.0,78,0.00,,,0.00,WUHU216HW,2013-03-16 04:41:00,
2013-03-16 00:46:00,29.5,23.1,29.36,North,0,0.0,0.0,77,0.00,,,0.00,WUHU216HW,2013-03-16 04:46:00,
2013-03-16 00:51:00,29.5,22.5,29.36,North,0,0.0,0.0,75,0.00,,,0.00,WUHU216HW,2013-03-16 04:51:00,
2013-03-16 00:56:00,29.3,22.4,29.36,North,0,0.0,0.0,75,0.00,,,0.00,WUHU216HW,2013-03-16 04:56:00,
2013-03-16 01:01:00,29.3,22.7,29.37,North,0,0.0,0.0,76,0.00,,,0.00,WUHU216HW,2013-03-16 05:01:00,
2013-03-16 01:06:00,29.2,22.5,29.37,North,0,0.0,0.0,76,0.00,,,0.00,WUHU216HW,2013-03-16 05:06:00,
2013-03-16 01:12:00,29.2,22.5,29.37,North,0,0.0,0.0,76,0.00,,,0.00,WUHU216HW,2013-03-16 05:12:00,
2013-03-16 01:17:00,29.0,22.3,29.37,North,0,0.0,0.0,76,0.00,,,0.00,WUHU216HW,2013-03-16 05:17:00,
2013-03-16 01:22:00,28.8,22.1,29.37,North,0,0.0,0.0,76,0.00,,,0.00,WUHU216HW,2013-03-16 05:22:00,
2013-03-16 01:27:00,28.6,22.0,29.37,North,0,0.0,0.0,76,0.00,,,0.00,WUHU216HW,2013-03-16 05:27:00,
2013-03-16 01:32:00,28.6,21.7,29.37,North,0,0.0,0.0,75,0.00,,,0.00,WUHU216HW,2013-03-16 05:32:00,
2013-03-16 01:37:00,28.4,21.5,29.37,North,0,0.0,0.0,75,0.00,,,0.00,WUHU216HW,2013-03-16 05:37:00,
2013-03-16 01:42:00,28.4,21.3,29.38,North,0,0.0,0.0,74,0.00,,,0.00,WUHU216HW,2013-03-16 05:42:00,
2013-03-16 01:47:00,28.4,21.3,29.38,North,0,0.0,0.0,74,0.00,,,0.00,WUHU216HW,2013-03-16 05:47:00,
2013-03-16 01:52:00,28.4,21.3,29.38,North,0,0.0,0.0,74,0.00,,,0.00,WUHU216HW,2013-03-16 05:52:00,
2013-03-16 01:57:00,28.3,21.1,29.38,North,0,0.0,0.0,74,0.00,,,0.00,WUHU216HW,2013-03-16 05:57:00,
2013-03-16 02:02:00,28.1,20.9,29.38,North,0,0.0,0.0,74,0.00,,,0.00,WUHU216HW,2013-03-16 06:02:00,
2013-03-16 02:07:00,27.9,20.7,29.38,North,0,0.0,0.0,74,0.00,,,0.00,WUHU216HW,2013-03-16 06:07:00,
2013-03-16 02:12:00,27.7,20.8,29.38,North,0,0.0,0.0,75,0.00,,,0.00,WUHU216HW,2013-03-16 06:12:00,
2013-03-16 02:17:00,27.7,20.5,29.38,North,0,0.0,0.0,74,0.00,,,0.00,WUHU216HW,2013-03-16 06:17:00,
2013-03-16 02:23:00,27.7,20.5,29.38,North,0,0.0,0.0,74,0.00,,,0.00,WUHU216HW,2013-03-16 06:23:00,
2013-03-16 02:28:00,27.7,20.5,29.38,North,0,0.0,0.0,74,0.00,,,0.00,WUHU216HW,2013-03-16 06:28:00,
2013-03-16 02:33:00,27.7,20.5,29.39,North,0,0.0,0.0,74,0.00,,,0.00,WUHU216HW,2013-03-16 06:33:00,
2013-03-16 02:38:00,27.7,20.5,29.39,North,0,0.0,0.0,74,0.00,,,0.00,WUHU216HW,2013-03-16 06:38:00,
2013-03-16 02:43:00,27.5,20.4,29.39,North,0,0.0,0.0,74,0.00,,,0.00,WUHU216HW,2013-03-16 06:43:00,
2013-03-16 02:48:00,27.5,20.6,29.39,North,0,0.0,0.0,75,0.00,,,0.00,WUHU216HW,2013-03-16 06:48:00,
2013-03-16 02:53:00,27.4,20.2,29.39,North,0,0.0,0.0,74,0.00,,,0.00,WUHU216HW,2013-03-16 06:53:00,
2013-03-16 02:58:00,27.4,19.8,29.39,North,0,0.0,0.0,73,0.00,,,0.00,WUHU216HW,2013-03-16 06:58:00,
2013-03-16 03:03:00,27.4,19.8,29.39,North,0,0.0,0.0,73,0.00,,,0.00,WUHU216HW,2013-03-16 07:03:00,
2013-03-16 03:08:00,27.2,19.6,29.39,North,0,0.0,0.0,73,0.00,,,0.00,WUHU216HW,2013-03-16 07:08:00,
2013-03-16 03:13:00,27.0,19.8,29.39,North,0,0.0,0.0,74,0.00,,,0.00,WUHU216HW,2013-03-16 07:13:00,
2013-03-16 03:18:00,26.8,19.6,29.39,North,0,0.0,0.0,74,0.00,,,0.00,WUHU216HW,2013-03-16 07:18:00,
2013-03-16 03:23:00,26.6,19.5,29.39,North,0,0.0,0.0,74,0.00,,,0.00,WUHU216HW,2013-03-16 07:23:00,
2013-03-16 03:28:00,26.6,19.5,29.39,North,0,0.0,0.0,74,0.00,,,0.00,WUHU216HW,2013-03-16 07:28:00,
2013-03-16 03:33:00,26.6,19.5,29.39,North,0,0.0,0.0,74,0.00,,,0.00,WUHU216HW,2013-03-16 07:33:00,
2013-03-16 03:38:00,26.6,19.5,29.39,North,0,0.0,0.0,74,0.00,,,0.00,WUHU216HW,2013-03-16 07:38:00,
2013-03-16 03:44:00,26.6,19.5,29.39,North,0,0.0,0.0,74,0.00,,,0.00,WUHU216HW,2013-03-16 07:44:00,
2013-03-16 03:49:00,26.5,19.3,29.40,North,0,0.0,0.0,74,0.00,,,0.00,WUHU216HW,2013-03-16 07:49:00,
2013-03-16 03:54:00,26.5,19.3,29.40,North,0,0.0,0.0,74,0.00,,,0.00,WUHU216HW,2013-03-16 07:54:00,
2013-03-16 03:59:00,26.5,19.3,29.40,North,0,0.0,0.0,74,0.00,,,0.00,WUHU216HW,2013-03-16 07:59:00,
2013-03-16 04:04:00,26.3,19.1,29.41,North,0,0.0,0.0,74,0.00,,,0.00,WUHU216HW,2013-03-16 08:04:00,
2013-03-16 04:09:00,26.3,19.1,29.41,North,0,0.0,0.0,74,0.00,,,0.00,WUHU216HW,2013-03-16 08:09:00,
2013-03-16 04:14:00,26.3,19.1,29.41,North,0,0.0,0.0,74,0.00,,,0.00,WUHU216HW,2013-03-16 08:14:00,
2013-03-16 04:19:00,26.1,18.9,29.41,North,0,0.0,0.0,74,0.00,,,0.00,WUHU216HW,2013-03-16 08:19:00,
2013-03-16 04:24:00,25.9,18.7,29.42,North,0,0.0,0.0,74,0.00,,,0.00,WUHU216HW,2013-03-16 08:24:00,
2013-03-16 04:29:00,25.7,18.5,29.42,North,0,0.0,0.0,74,0.00,,,0.00,WUHU216HW,2013-03-16 08:29:00,
2013-03-16 04:34:00,25.6,18.7,29.42,North,0,0.0,0.0,75,0.00,,,0.00,WUHU216HW,2013-03-16 08:34:00,
2013-03-16 04:39:00,25.6,18.7,29.42,North,0,0.0,0.0,75,0.00,,,0.00,WUHU216HW,2013-03-16 08:39:00,
2013-03-16 04:45:00,25.6,18.7,29.43,North,0,0.0,0.0,75,0.00,,,0.00,WUHU216HW,2013-03-16 08:45:00,
2013-03-16 04:50:00,25.2,18.4,29.43,North,0,0.0,0.0,75,0.00,,,0.00,WUHU216HW,2013-03-16 08:50:00,
2013-03-16 04:55:00,25.0,18.2,29.43,North,0,0.0,0.0,75,0.00,,,0.00,WUHU216HW,2013-03-16 08:55:00,
2013-03-16 05:00:00,24.8,18.0,29.43,North,0,0.0,0.0,75,0.00,,,0.00,WUHU216HW,2013-03-16 09:00:00,
2013-03-16 05:05:00,24.8,18.0,29.43,North,0,0.0,0.0,75,0.00,,,0.00,WUHU216HW,2013-03-16 09:05:00,
2013-03-16 05:10:00,24.7,17.8,29.44,North,0,0.0,0.0,75,0.00,,,0.00,WUHU216HW,2013-03-16 09:10:00,
2013-03-16 05:15:00,24.5,18.0,29.44,North,0,0.0,0.0,76,0.00,,,0.00,WUHU216HW,2013-03-16 09:15:00,
2013-03-16 05:20:00,24.5,18.0,29.44,North,0,0.0,0.0,76,0.00,,,0.00,WUHU216HW,2013-03-16 09:20:00,
2013-03-16 05:25:00,24.5,18.3,29.44,North,0,0.0,0.0,77,0.00,,,0.00,WUHU216HW,2013-03-16 09:25:00,
2013-03-16 05:30:00,24.5,18.3,29.44,North,0,0.0,0.0,77,0.00,,,0.00,WUHU216HW,2013-03-16 09:30:00,
2013-03-16 05:35:00,24.5,18.3,29.44,North,0,0.0,0.0,77,0.00,,,0.00,WUHU216HW,2013-03-16 09:35:00,
2013-03-16 05:40:00,24.7,18.5,29.44,North,0,0.0,0.0,77,0.00,,,0.00,WUHU216HW,2013-03-16 09:40:00,
2013-03-16 05:45:00,24.7,18.2,29.45,North,0,0.0,0.0,76,0.00,,,0.00,WUHU216HW,2013-03-16 09:45:00,
2013-03-16 05:51:00,24.8,18.4,29.45,North,0,0.0,0.0,76,0.00,,,0.00,WUHU216HW,2013-03-16 09:51:00,
2013-03-16 05:56:00,24.8,18.0,29.46,North,0,0.0,0.0,75,0.00,,,0.00,WUHU216HW,2013-03-16 09:56:00,
2013-03-16 06:01:00,25.0,18.2,29.46,North,0,0.0,0.0,75,0.00,,,0.00,WUHU216HW,2013-03-16 10:01:00,
2013-03-16 06:06:00,25.0,18.2,29.46,North,0,0.0,0.0,75,0.00,,,0.00,WUHU216HW,2013-03-16 10:06:00,
2013-03-16 06:11:00,25.0,18.2,29.46,North,0,0.0,0.0,75,0.00,,,0.00,WUHU216HW,2013-03-16 10:11:00,
2013-03-16 06:16:00,24.8,18.0,29.46,North,0,0.0,0.0,75,0.00,,,0.00,WUHU216HW,2013-03-16 10:16:00,
2013-03-16 06:21:00,24.8,17.6,29.46,North,0,0.0,0.0,74,0.00,,,0.00,WUHU216HW,2013-03-16 10:21:00,
2013-03-16 06:27:00,24.8,17.6,29.46,North,0,0.0,0.0,74,0.00,,,0.00,WUHU216HW,2013-03-16 10:27:00,
2013-03-16 06:32:00,24.7,17.6,29.46,North,0,0.0,0.0,74,0.00,,,0.00,WUHU216HW,2013-03-16 10:32:00,
2013-03-16 06:37:00,24.5,17.4,29.47,North,0,0.0,0.0,74,0.00,,,0.00,WUHU216HW,2013-03-16 10:37:00,
2013-03-16 06:42:00,24.5,17.4,29.47,North,0,0.0,0.0,74,0.00,,,0.00,WUHU216HW,2013-03-16 10:42:00,
2013-03-16 06:47:00,24.3,17.5,29.47,North,0,0.0,0.0,75,0.00,,,0.00,WUHU216HW,2013-03-16 10:47:00,
2013-03-16 06:52:00,24.1,17.3,29.47,North,0,0.0,0.0,75,0.00,,,0.00,WUHU216HW,2013-03-16 10:52:00,
2013-03-16 06:57:00,24.1,17.3,29.47,North,0,0.0,0.0,75,0.00,,,0.00,WUHU216HW,2013-03-16 10:57:00,
2013-03-16 07:02:00,24.1,17.3,29.47,North,0,0.0,0.0,75,0.00,,,0.00,WUHU216HW,2013-03-16 11:02:00,
2013-03-16 07:07:00,23.9,17.1,29.47,North,0,0.0,0.0,75,0.00,,,0.00,WUHU216HW,2013-03-16 11:07:00,
2013-03-16 07:12:00,23.9,17.1,29.48,North,0,0.0,0.0,75,0.00,,,0.00,WUHU216HW,2013-03-16 11:12:00,
2013-03-16 07:17:00,23.8,17.0,29.48,North,0,0.0,0.0,75,0.00,,,0.00,WUHU216HW,2013-03-16 11:17:00,
2013-03-16 07:22:00,23.8,17.0,29.48,North,0,0.0,0.0,75,0.00,,,0.00,WUHU216HW,2013-03-16 11:22:00,
2013-03-16 07:27:00,23.8,17.0,29.48,North,0,0.0,0.0,75,0.00,,,0.00,WUHU216HW,2013-03-16 11:27:00,
2013-03-16 07:32:00,23.6,16.8,29.48,North,0,0.0,0.0,75,0.00,,,0.00,WUHU216HW,2013-03-16 11:32:00,
2013-03-16 07:37:00,23.6,16.8,29.48,North,0,0.0,0.0,75,0.00,,,0.00,WUHU216HW,2013-03-16 11:37:00,
2013-03-16 07:43:00,23.8,17.0,29.49,North,0,0.0,0.0,75,0.00,,,0.00,WUHU216HW,2013-03-16 11:43:00,
2013-03-16 07:48:00,23.9,17.1,29.48,North,0,0.0,0.0,75,0.00,,,0.00,WUHU216HW,2013-03-16 11:48:00,
2013-03-16 07:53:00,24.1,17.3,29.49,North,0,0.0,0.0,75,0.00,,,0.00,WUHU216HW,2013-03-16 11:53:00,
2013-03-16 07:58:00,24.3,17.2,29.49,North,0,0.0,0.0,74,0.00,,,0.00,WUHU216HW,2013-03-16 11:58:00,
2013-03-16 08:03:00,24.5,17.0,29.50,North,0,0.0,0.0,73,0.00,,,0.00,WUHU216HW,2013-03-16 12:03:00,
2013-03-16 08:08:00,24.8,17.4,29.50,North,0,0.0,0.0,73,0.00,,,0.00,WUHU216HW,2013-03-16 12:08:00,
2013-03-16 08:13:00,25.0,17.2,29.50,North,0,0.0,0.0,72,0.00,,,0.00,WUHU216HW,2013-03-16 12:13:00,
2013-03-16 08:18:00,25.4,17.6,29.50,North,0,0.0,0.0,72,0.00,,,0.00,WUHU216HW,2013-03-16 12:18:00,
2013-03-16 08:23:00,25.6,17.7,29.50,North,0,0.0,0.0,72,0.00,,,0.00,WUHU216HW,2013-03-16 12:23:00,
2013-03-16 08:28:00,25.6,17.5,29.50,North,0,0.0,0.0,71,0.00,,,0.00,WUHU216HW,2013-03-16 12:28:00,
2013-03-16 08:33:00,25.7,17.3,29.50,North,0,0.0,0.0,70,0.00,,,0.00,WUHU216HW,2013-03-16 12:33:00,
2013-03-16 08:38:00,25.9,17.5,29.50,North,0,0.0,0.0,70,0.00,,,0.00,WUHU216HW,2013-03-16 12:38:00,
2013-03-16 08:43:00,26.3,17.8,29.50,North,0,0.0,0.0,70,0.00,,,0.00,WUHU216HW,2013-03-16 12:43:00,
2013-03-16 08:48:00,26.3,17.5,29.50,North,0,0.0,0.0,69,0.00,,,0.00,WUHU216HW,2013-03-16 12:48:00,
2013-03-16 08:53:00,26.6,18.2,29.50,North,0,0.0,0.0,70,0.00,,,0.00,WUHU216HW,2013-03-16 12:53:00,
2013-03-16 08:59:00,27.0,18.5,29.50,North,0,0.0,0.0,70,0.00,,,0.00,WUHU216HW,2013-03-16 12:59:00,
2013-03-16 09:04:00,27.4,18.2,29.51,North,0,0.0,0.0,68,0.00,,,0.00,WUHU216HW,2013-03-16 13:04:00,
2013-03-16 09:09:00,27.5,17.6,29.51,North,0,0.0,0.0,66,0.00,,,0.00,WUHU216HW,2013-03-16 13:09:00,
2013-03-16 09:14:00,27.9,18.0,29.51,North,0,0.0,0.0,66,0.00,,,0.00,WUHU216HW,2013-03-16 13:14:00,
2013-03-16 09:19:00,28.4,18.2,29.50,North,0,0.0,0.0,65,0.00,,,0.00,WUHU216HW,2013-03-16 13:19:00,
2013-03-16 09:24:00,28.8,18.2,29.50,North,0,0.0,0.0,64,0.00,,,0.00,WUHU216HW,2013-03-16 13:24:00,
2013-03-16 09:29:00,29.2,18.5,29.51,North,0,0.0,0.0,64,0.00,,,0.00,WUHU216HW,2013-03-16 13:29:00,
2013-03-16 09:34:00,29.7,19.4,29.51,North,0,0.0,0.0,65,0.00,,,0.00,WUHU216HW,2013-03-16 13:34:00,
2013-03-16 09:39:00,29.9,18.7,29.51,North,0,0.0,0.0,63,0.00,,,0.00,WUHU216HW,2013-03-16 13:39:00,
2013-03-16 09:44:00,29.9,18.4,29.51,North,0,0.0,0.0,62,0.00,,,0.00,WUHU216HW,2013-03-16 13:44:00,
2013-03-16 09:49:00,30.1,18.5,29.51,North,0,0.0,0.0,62,0.00,,,0.00,WUHU216HW,2013-03-16 13:49:00,
2013-03-16 09:54:00,30.4,18.9,29.51,North,0,0.0,0.0,62,0.00,,,0.00,WUHU216HW,2013-03-16 13:54:00,
2013-03-16 09:59:00,31.0,19.4,29.51,North,0,0.0,0.0,62,0.00,,,0.00,WUHU216HW,2013-03-16 13:59:00,
2013-03-16 10:04:00,31.5,18.8,29.51,North,0,0.0,0.0,59,0.00,,,0.00,WUHU216HW,2013-03-16 14:04:00,
2013-03-16 10:09:00,31.7,18.5,29.51,North,0,0.0,0.0,58,0.00,,,0.00,WUHU216HW,2013-03-16 14:09:00,
2013-03-16 10:14:00,31.5,18.5,29.51,North,0,0.0,0.0,58,0.00,,,0.00,WUHU216HW,2013-03-16 14:14:00,
2013-03-16 10:19:00,31.7,19.0,29.51,North,0,0.0,0.0,59,0.00,,,0.00,WUHU216HW,2013-03-16 14:19:00,
2013-03-16 10:25:00,32.0,18.1,29.50,North,0,0.0,0.0,56,0.00,,,0.00,WUHU216HW,2013-03-16 14:25:00,
2013-03-16 10:30:00,32.6,19.0,29.50,North,0,0.0,0.0,57,0.00,,,0.00,WUHU216HW,2013-03-16 14:30:00,
2013-03-16 10:35:00,33.1,18.2,29.50,North,0,0.0,0.0,54,0.00,,,0.00,WUHU216HW,2013-03-16 14:35:00,
2013-03-16 10:40:00,33.3,18.8,29.50,North,0,0.0,0.0,55,0.00,,,0.00,WUHU216HW,2013-03-16 14:40:00,
2013-03-16 10:45:00,34.2,19.6,29.50,North,0,0.0,0.0,55,0.00,,,0.00,WUHU216HW,2013-03-16 14:45:00,
2013-03-16 10:50:00,34.7,19.7,29.50,North,0,0.0,0.0,54,0.00,,,0.00,WUHU216HW,2013-03-16 14:50:00,
2013-03-16 10:55:00,35.5,19.6,29.50,North,0,0.0,0.0,52,0.00,,,0.00,WUHU216HW,2013-03-16 14:55:00,
2013-03-16 11:00:00,35.6,19.8,29.50,North,0,0.0,0.0,52,0.00,,,0.00,WUHU216HW,2013-03-16 15:00:00,
2013-03-16 11:05:00,36.4,20.9,29.50,North,0,0.0,0.0,53,0.00,,,0.00,WUHU216HW,2013-03-16 15:05:00,
2013-03-16 11:10:00,36.9,20.4,29.50,North,0,0.0,0.0,51,0.00,,,0.00,WUHU216HW,2013-03-16 15:10:00,
2013-03-16 11:15:00,36.7,20.4,29.49,North,0,0.0,0.0,51,0.00,,,0.00,WUHU216HW,2013-03-16 15:15:00,
2013-03-16 11:21:00,36.0,19.6,29.49,North,0,0.0,0.0,51,0.00,,,0.00,WUHU216HW,2013-03-16 15:21:00,
2013-03-16 11:26:00,36.0,21.0,29.49,North,0,0.0,0.0,54,0.01,,,0.01,WUHU216HW,2013-03-16 15:26:00,
2013-03-16 11:31:00,36.0,20.1,29.49,North,0,0.0,0.0,52,0.01,,,0.01,WUHU216HW,2013-03-16 15:31:00,
2013-03-16 11:36:00,35.8,19.1,29.50,North,0,0.0,0.0,50,0.01,,,0.01,WUHU216HW,2013-03-16 15:36:00,
2013-03-16 11:41:00,36.0,18.7,29.49,North,0,0.0,0.0,49,0.01,,,0.01,WUHU216HW,2013-03-16 15:41:00,
2013-03-16 11:47:00,36.0,18.7,29.49,North,0,0.0,0.0,49,0.01,,,0.01,WUHU216HW,2013-03-16 15:47:00,
2013-03-16 11:52:00,36.4,19.0,29.49,North,0,0.0,0.0,49,0.01,,,0.01,WUHU216HW,2013-03-16 15:52:00,
2013-03-16 11:57:00,36.7,18.8,29.49,North,0,0.0,0.0,48,0.01,,,0.01,WUHU216HW,2013-03-16 15:57:00,
2013-03-16 12:02:00,36.4,18.0,29.48,North,0,0.0,0.0,47,0.01,,,0.01,WUHU216HW,2013-03-16 16:02:00,
2013-03-16 12:07:00,36.0,18.2,29.48,North,0,0.0,0.0,48,0.01,,,0.01,WUHU216HW,2013-03-16 16:07:00,
2013-03-16 12:12:00,36.9,19.5,29.48,North,0,0.0,0.0,49,0.01,,,0.01,WUHU216HW,2013-03-16 16:12:00,
2013-03-16 12:17:00,37.4,20.5,29.48,North,0,0.0,0.0,50,0.01,,,0.01,WUHU216HW,2013-03-16 16:17:00,
2013-03-16 12:22:00,37.8,20.4,29.48,North,0,0.0,0.0,49,0.01,,,0.01,WUHU216HW,2013-03-16 16:22:00,
2013-03-16 12:27:00,36.4,16.9,29.48,North,0,0.0,0.0,45,0.00,,,0.01,WUHU216HW,2013-03-16 16:27:00,
2013-03-16 12:32:00,35.8,16.5,29.49,North,0,0.0,0.0,45,0.00,,,0.01,WUHU216HW,2013-03-16 16:32:00,
2013-03-16 12:37:00,35.6,16.3,29.48,North,0,0.0,0.0,45,0.00,,,0.01,WUHU216HW,2013-03-16 16:37:00,
2013-03-16 12:42:00,36.7,17.8,29.48,North,0,0.0,0.0,46,0.00,,,0.01,WUHU216HW,2013-03-16 16:42:00,
2013-03-16 12:47:00,38.0,17.4,29.49,North,0,0.0,0.0,43,0.00,,,0.01,WUHU216HW,2013-03-16 16:47:00,
2013-03-16 12:52:00,38.5,18.9,29.49,North,0,0.0,0.0,45,0.00,,,0.01,WUHU216HW,2013-03-16 16:52:00,
2013-03-16 12:57:00,38.5,18.4,29.49,North,0,0.0,0.0,44,0.00,,,0.01,WUHU216HW,2013-03-16 16:57:00,
2013-03-16 13:03:00,38.7,18.0,29.48,North,0,0.0,0.0,43,0.00,,,0.01,WUHU216HW,2013-03-16 17:03:00,
2013-03-16 13:08:00,38.7,18.6,29.48,North,0,0.0,0.0,44,0.00,,,0.01,WUHU216HW,2013-03-16 17:08:00,
2013-03-16 13:13:00,39.6,20.3,29.48,North,0,0.0,0.0,46,0.00,,,0.01,WUHU216HW,2013-03-16 17:13:00,
2013-03-16 13:18:00,40.0,19.6,29.48,North,0,0.0,0.0,44,0.00,,,0.01,WUHU216HW,2013-03-16 17:18:00,
2013-03-16 13:23:00,40.0,19.6,29.47,North,0,0.0,0.0,44,0.00,,,0.01,WUHU216HW,2013-03-16 17:23:00,
2013-03-16 13:28:00,39.6,18.3,29.47,North,0,0.0,0.0,42,0.00,,,0.01,WUHU216HW,2013-03-16 17:28:00,
2013-03-16 13:33:00,39.2,18.0,29.48,North,0,0.0,0.0,42,0.00,,,0.01,WUHU216HW,2013-03-16 17:33:00,
2013-03-16 13:38:00,39.2,18.5,29.48,North,0,0.0,0.0,43,0.00,,,0.01,WUHU216HW,2013-03-16 17:38:00,
2013-03-16 13:43:00,39.2,19.0,29.48,North,0,0.0,0.0,44,0.00,,,0.01,WUHU216HW,2013-03-16 17:43:00,
2013-03-16 13:48:00,38.7,16.9,29.48,North,0,0.0,0.0,41,0.00,,,0.01,WUHU216HW,2013-03-16 17:48:00,
2013-03-16 13:53:00,37.8,16.1,29.48,North,0,0.0,0.0,41,0.00,,,0.01,WUHU216HW,2013-03-16 17:53:00,
2013-03-16 13:58:00,37.3,16.2,29.48,North,0,0.0,0.0,42,0.00,,,0.01,WUHU216HW,2013-03-16 17:58:00,
2013-03-16 14:03:00,37.1,16.6,29.48,North,0,0.0,0.0,43,0.00,,,0.01,WUHU216HW,2013-03-16 18:03:00,
2013-03-16 14:08:00,36.7,16.2,29.47,North,0,0.0,0.0,43,0.00,,,0.01,WUHU216HW,2013-03-16 18:08:00,
2013-03-16 14:13:00,36.9,16.4,29.47,North,0,0.0,0.0,43,0.00,,,0.01,WUHU216HW,2013-03-16 18:13:00,
2013-03-16 14:18:00,37.4,17.4,29.47,North,0,0.0,0.0,44,0.00,,,0.01,WUHU216HW,2013-03-16 18:18:00,
2013-03-16 14:23:00,37.4,16.4,29.47,North,0,0.0,0.0,42,0.00,,,0.01,WUHU216HW,2013-03-16 18:23:00,
2013-03-16 14:29:00,37.4,15.9,29.47,North,0,0.0,0.0,41,0.00,,,0.01,WUHU216HW,2013-03-16 18:29:00,
2013-03-16 14:34:00,37.1,15.5,29.47,North,0,0.0,0.0,41,0.00,,,0.01,WUHU216HW,2013-03-16 18:34:00,
2013-03-16 14:39:00,37.1,14.9,29.47,North,0,0.0,0.0,40,0.00,,,0.01,WUHU216HW,2013-03-16 18:39:00,
2013-03-16 14:44:00,36.7,15.2,29.47,North,0,0.0,0.0,41,0.00,,,0.01,WUHU216HW,2013-03-16 18:44:00,
2013-03-16 14:49:00,36.9,16.4,29.47,North,0,0.0,0.0,43,0.00,,,0.01,WUHU216HW,2013-03-16 18:49:00,
2013-03-16 14:54:00,37.1,16.6,29.47,North,0,0.0,0.0,43,0.00,,,0.01,WUHU216HW,2013-03-16 18:54:00,
2013-03-16 14:59:00,36.7,15.7,29.47,North,0,0.0,0.0,42,0.00,,,0.01,WUHU216HW,2013-03-16 18:59:00,
2013-03-16 15:04:00,36.4,15.4,29.48,North,0,0.0,0.0,42,0.00,,,0.01,WUHU216HW,2013-03-16 19:04:00,
2013-03-16 15:09:00,36.4,15.4,29.48,North,0,0.0,0.0,42,0.00,,,0.01,WUHU216HW,2013-03-16 19:09:00,
2013-03-16 15:14:00,35.8,14.4,29.48,North,0,0.0,0.0,41,0.00,,,0.01,WUHU216HW,2013-03-16 19:14:00,
2013-03-16 15:19:00,35.8,14.9,29.48,North,0,0.0,0.0,42,0.00,,,0.01,WUHU216HW,2013-03-16 19:19:00,
2013-03-16 15:24:00,36.0,15.0,29.47,North,0,0.0,0.0,42,0.00,,,0.01,WUHU216HW,2013-03-16 19:24:00,
2013-03-16 15:29:00,36.0,14.5,29.48,North,0,0.0,0.0,41,0.00,,,0.01,WUHU216HW,2013-03-16 19:29:00,
2013-03-16 15:34:00,36.4,16.4,29.48,North,0,0.0,0.0,44,0.00,,,0.01,WUHU216HW,2013-03-16 19:34:00,
2013-03-16 15:39:00,36.9,15.8,29.48,North,0,0.0,0.0,42,0.00,,,0.01,WUHU216HW,2013-03-16 19:39:00,
2013-03-16 15:44:00,36.9,15.8,29.48,North,0,0.0,0.0,42,0.00,,,0.01,WUHU216HW,2013-03-16 19:44:00,
2013-03-16 15:49:00,36.7,16.2,29.47,North,0,0.0,0.0,43,0.00,,,0.01,WUHU216HW,2013-03-16 19:49:00,
2013-03-16 15:54:00,36.7,15.7,29.47,North,0,0.0,0.0,42,0.00,,,0.01,WUHU216HW,2013-03-16 19:54:00,
2013-03-16 16:00:00,36.9,15.8,29.47,North,0,0.0,0.0,42,0.00,,,0.01,WUHU216HW,2013-03-16 20:00:00,
2013-03-16 16:05:00,37.1,16.6,29.46,North,0,0.0,0.0,43,0.00,,,0.01,WUHU216HW,2013-03-16 20:05:00,
2013-03-16 16:10:00,37.1,16.0,29.46,North,0,0.0,0.0,42,0.00,,,0.01,WUHU216HW,2013-03-16 20:10:00,
2013-03-16 16:15:00,36.9,15.8,29.46,North,0,0.0,0.0,42,0.00,,,0.01,WUHU216HW,2013-03-16 20:15:00,
2013-03-16 16:20:00,36.5,15.0,29.46,North,0,0.0,0.0,41,0.00,,,0.01,WUHU216HW,2013-03-16 20:20:00,
2013-03-16 16:25:00,36.4,14.3,29.46,North,0,0.0,0.0,40,0.00,,,0.01,WUHU216HW,2013-03-16 20:25:00,
2013-03-16 16:30:00,36.4,15.4,29.46,North,0,0.0,0.0,42,0.00,,,0.01,WUHU216HW,2013-03-16 20:30:00,
2013-03-16 16:35:00,36.2,15.2,29.46,North,0,0.0,0.0,42,0.00,,,0.01,WUHU216HW,2013-03-16 20:35:00,
2013-03-16 16:40:00,36.2,15.2,29.45,North,0,0.0,0.0,42,0.00,,,0.01,WUHU216HW,2013-03-16 20:40:00,
2013-03-16 16:45:00,36.0,15.0,29.45,North,0,0.0,0.0,42,0.00,,,0.01,WUHU216HW,2013-03-16 20:45:00,
2013-03-16 16:50:00,36.4,15.9,29.45,North,0,0.0,0.0,43,0.00,,,0.01,WUHU216HW,2013-03-16 20:50:00,
2013-03-16 16:55:00,36.2,15.2,29.45,North,0,0.0,0.0,42,0.00,,,0.01,WUHU216HW,2013-03-16 20:55:00,
2013-03-16 17:00:00,36.2,15.8,29.45,North,0,0.0,0.0,43,0.00,,,0.01,WUHU216HW,2013-03-16 21:00:00,
2013-03-16 17:05:00,36.2,15.2,29.45,North,0,0.0,0.0,42,0.00,,,0.01,WUHU216HW,2013-03-16 21:05:00,
2013-03-16 17:10:00,36.0,14.5,29.45,North,0,0.0,0.0,41,0.00,,,0.01,WUHU216HW,2013-03-16 21:10:00,
2013-03-16 17:16:00,36.0,15.0,29.45,North,0,0.0,0.0,42,0.00,,,0.01,WUHU216HW,2013-03-16 21:16:00,
2013-03-16 17:21:00,36.0,15.0,29.45,North,0,0.0,0.0,42,0.00,,,0.01,WUHU216HW,2013-03-16 21:21:00,
2013-03-16 17:26:00,35.6,14.2,29.45,North,0,0.0,0.0,41,0.00,,,0.01,WUHU216HW,2013-03-16 21:26:00,
2013-03-16 17:31:00,35.5,14.1,29.46,North,0,0.0,0.0,41,0.00,,,0.01,WUHU216HW,2013-03-16 21:31:00,
2013-03-16 17:36:00,35.3,14.4,29.46,North,0,0.0,0.0,42,0.00,,,0.01,WUHU216HW,2013-03-16 21:36:00,
2013-03-16 17:41:00,35.1,14.2,29.46,North,0,0.0,0.0,42,0.00,,,0.01,WUHU216HW,2013-03-16 21:41:00,
2013-03-16 17:46:00,34.9,14.0,29.45,North,0,0.0,0.0,42,0.00,,,0.01,WUHU216HW,2013-03-16 21:46:00,
2013-03-16 17:51:00,34.9,14.0,29.45,North,0,0.0,0.0,42,0.00,,,0.01,WUHU216HW,2013-03-16 21:51:00,
2013-03-16 17:56:00,34.6,13.8,29.45,North,0,0.0,0.0,42,0.00,,,0.01,WUHU216HW,2013-03-16 21:56:00,
2013-03-16 18:01:00,34.2,13.4,29.45,North,0,0.0,0.0,42,0.00,,,0.01,WUHU216HW,2013-03-16 22:01:00,
2013-03-16 18:06:00,34.0,13.2,29.45,North,0,0.0,0.0,42,0.00,,,0.01,WUHU216HW,2013-03-16 22:06:00,
2013-03-16 18:11:00,33.7,12.9,29.45,North,0,0.0,0.0,42,0.00,,,0.01,WUHU216HW,2013-03-16 22:11:00,
2013-03-16 18:16:00,33.5,13.2,29.46,North,0,0.0,0.0,43,0.00,,,0.01,WUHU216HW,2013-03-16 22:16:00,
2013-03-16 18:22:00,33.3,13.6,29.46,North,0,0.0,0.0,44,0.00,,,0.01,WUHU216HW,2013-03-16 22:22:00,
2013-03-16 18:27:00,33.1,13.4,29.46,North,0,0.0,0.0,44,0.00,,,0.01,WUHU216HW,2013-03-16 22:27:00,
2013-03-16 18:32:00,32.9,13.2,29.46,North,0,0.0,0.0,44,0.00,,,0.01,WUHU216HW,2013-03-16 22:32:00,
2013-03-16 18:37:00,32.8,13.6,29.46,North,0,0.0,0.0,45,0.00,,,0.01,WUHU216HW,2013-03-16 22:37:00,
2013-03-16 18:42:00,32.8,13.6,29.47,North,0,0.0,0.0,45,0.00,,,0.01,WUHU216HW,2013-03-16 22:42:00,
2013-03-16 18:47:00,32.6,14.0,29.46,North,0,0.0,0.0,46,0.00,,,0.01,WUHU216HW,2013-03-16 22:47:00,
2013-03-16 18:52:00,32.6,14.0,29.47,North,0,0.0,0.0,46,0.00,,,0.01,WUHU216HW,2013-03-16 22:52:00,
2013-03-16 18:57:00,32.4,13.8,29.47,North,0,0.0,0.0,46,0.00,,,0.01,WUHU216HW,2013-03-16 22:57:00,
2013-03-16 19:02:00,32.2,13.6,29.46,North,0,0.0,0.0,46,0.00,,,0.01,WUHU216HW,2013-03-16 23:02:00,
2013-03-16 19:07:00,32.0,13.5,29.47,North,0,0.0,0.0,46,0.00,,,0.01,WUHU216HW,2013-03-16 23:07:00,
2013-03-16 19:12:00,32.0,14.0,29.46,North,0,0.0,0.0,47,0.00,,,0.01,WUHU216HW,2013-03-16 23:12:00,
2013-03-16 19:17:00,31.9,13.8,29.47,North,0,0.0,0.0,47,0.00,,,0.01,WUHU216HW,2013-03-16 23:17:00,
2013-03-16 19:22:00,31.7,14.1,29.47,North,0,0.0,0.0,48,0.00,,,0.01,WUHU216HW,2013-03-16 23:22:00,
2013-03-16 19:28:00,31.7,14.1,29.47,North,0,0.0,0.0,48,0.00,,,0.01,WUHU216HW,2013-03-16 23:28:00,
2013-03-16 19:33:00,31.5,14.0,29.47,North,0,0.0,0.0,48,0.00,,,0.01,WUHU216HW,2013-03-16 23:33:00,
2013-03-16 19:38:00,31.5,14.0,29.47,North,0,0.0,0.0,48,0.00,,,0.01,WUHU216HW,2013-03-16 23:38:00,
2013-03-16 19:43:00,31.5,14.5,29.48,North,0,0.0,0.0,49,0.00,,,0.01,WUHU216HW,2013-03-16 23:43:00,
2013-03-16 19:48:00,31.5,15.0,29.48,North,0,0.0,0.0,50,0.00,,,0.01,WUHU216HW,2013-03-16 23:48:00,
2013-03-16 19:53:00,31.3,14.9,29.48,North,0,0.0,0.0,50,0.00,,,0.01,WUHU216HW,2013-03-16 23:53:00,
2013-03-16 19:58:00,31.3,15.3,29.49,North,0,0.0,0.0,51,0.00,,,0.01,WUHU216HW,2013-03-16 23:58:00,
2013-03-16 20:03:00,31.3,15.3,29.49,North,0,0.0,0.0,51,0.00,,,0.01,WUHU216HW,2013-03-17 00:03:00,
2013-03-16 20:08:00,31.3,15.7,29.49,North,0,0.0,0.0,52,0.00,,,0.01,WUHU216HW,2013-03-17 00:08:00,
2013-03-16 20:13:00,31.3,15.7,29.49,North,0,0.0,0.0,52,0.00,,,0.01,WUHU216HW,2013-03-17 00:13:00,
2013-03-16 20:18:00,31.3,15.7,29.49,North,0,0.0,0.0,52,0.00,,,0.01,WUHU216HW,2013-03-17 00:18:00,
2013-03-16 20:23:00,31.3,15.7,29.49,North,0,0.0,0.0,52,0.00,,,0.01,WUHU216HW,2013-03-17 00:23:00,
2013-03-16 20:28:00,31.3,15.7,29.49,North,0,0.0,0.0,52,0.00,,,0.01,WUHU216HW,2013-03-17 00:28:00,
2013-03-16 20:33:00,31.1,15.5,29.50,North,0,0.0,0.0,52,0.00,,,0.01,WUHU216HW,2013-03-17 00:33:00,
2013-03-16 20:38:00,31.1,15.5,29.50,North,0,0.0,0.0,52,0.00,,,0.01,WUHU216HW,2013-03-17 00:38:00,
2013-03-16 20:43:00,31.1,15.5,29.50,North,0,0.0,0.0,52,0.00,,,0.01,WUHU216HW,2013-03-17 00:43:00,
2013-03-16 20:48:00,31.1,15.1,29.50,North,0,0.0,0.0,51,0.00,,,0.01,WUHU216HW,2013-03-17 00:48:00,
2013-03-16 20:53:00,31.1,15.1,29.51,North,0,0.0,0.0,51,0.00,,,0.01,WUHU216HW,2013-03-17 00:53:00,
2013-03-16 20:58:00,31.1,15.5,29.51,North,0,0.0,0.0,52,0.00,,,0.01,WUHU216HW,2013-03-17 00:58:00,
2013-03-16 21:04:00,31.0,15.4,29.51,North,0,0.0,0.0,52,0.00,,,0.01,WUHU216HW,2013-03-17 01:04:00,
2013-03-16 21:09:00,31.0,15.4,29.51,North,0,0.0,0.0,52,0.00,,,0.01,WUHU216HW,2013-03-17 01:09:00,
2013-03-16 21:14:00,31.0,15.4,29.51,North,0,0.0,0.0,52,0.00,,,0.01,WUHU216HW,2013-03-17 01:14:00,
2013-03-16 21:19:00,31.0,15.4,29.52,North,0,0.0,0.0,52,0.00,,,0.01,WUHU216HW,2013-03-17 01:19:00,
2013-03-16 21:24:00,30.8,15.2,29.52,North,0,0.0,0.0,52,0.00,,,0.01,WUHU216HW,2013-03-17 01:24:00,
2013-03-16 21:29:00,30.8,15.2,29.52,North,0,0.0,0.0,52,0.00,,,0.01,WUHU216HW,2013-03-17 01:29:00,
2013-03-16 21:34:00,30.8,15.2,29.52,North,0,0.0,0.0,52,0.00,,,0.01,WUHU216HW,2013-03-17 01:34:00,
2013-03-16 21:39:00,30.8,15.2,29.53,North,0,0.0,0.0,52,0.00,,,0.01,WUHU216HW,2013-03-17 01:39:00,
2013-03-16 21:44:00,30.6,15.0,29.52,North,0,0.0,0.0,52,0.00,,,0.01,WUHU216HW,2013-03-17 01:44:00,
2013-03-16 21:49:00,30.6,15.0,29.53,North,0,0.0,0.0,52,0.00,,,0.01,WUHU216HW,2013-03-17 01:49:00,
2013-03-16 21:54:00,30.6,15.0,29.52,North,0,0.0,0.0,52,0.00,,,0.01,WUHU216HW,2013-03-17 01:54:00,
2013-03-16 21:59:00,30.6,15.0,29.53,North,0,0.0,0.0,52,0.00,,,0.01,WUHU216HW,2013-03-17 01:59:00,
2013-03-16 22:05:00,30.4,14.9,29.53,North,0,0.0,0.0,52,0.00,,,0.01,WUHU216HW,2013-03-17 02:05:00,
2013-03-16 22:10:00,30.4,14.9,29.53,North,0,0.0,0.0,52,0.00,,,0.01,WUHU216HW,2013-03-17 02:10:00,
2013-03-16 22:15:00,30.4,14.9,29.53,North,0,0.0,0.0,52,0.00,,,0.01,WUHU216HW,2013-03-17 02:15:00,
2013-03-16 22:20:00,30.2,14.7,29.53,North,0,0.0,0.0,52,0.00,,,0.01,WUHU216HW,2013-03-17 02:20:00,
2013-03-16 22:25:00,30.2,14.7,29.53,North,0,0.0,0.0,52,0.00,,,0.01,WUHU216HW,2013-03-17 02:25:00,
2013-03-16 22:30:00,30.1,14.5,29.53,North,0,0.0,0.0,52,0.00,,,0.01,WUHU216HW,2013-03-17 02:30:00,
2013-03-16 22:35:00,30.1,14.9,29.53,North,0,0.0,0.0,53,0.00,,,0.01,WUHU216HW,2013-03-17 02:35:00,
2013-03-16 22:40:00,29.9,14.8,29.53,North,0,0.0,0.0,53,0.00,,,0.01,WUHU216HW,2013-03-17 02:40:00,
2013-03-16 22:45:00,29.9,14.8,29.53,North,0,0.0,0.0,53,0.00,,,0.01,WUHU216HW,2013-03-17 02:45:00,
2013-03-16 22:50:00,29.7,14.6,29.54,North,0,0.0,0.0,53,0.00,,,0.01,WUHU216HW,2013-03-17 02:50:00,
2013-03-16 22:55:00,29.5,14.5,29.54,North,0,0.0,0.0,53,0.00,,,0.01,WUHU216HW,2013-03-17 02:55:00,
2013-03-16 23:00:00,29.3,14.3,29.54,North,0,0.0,0.0,53,0.00,,,0.01,WUHU216HW,2013-03-17 03:00:00,
2013-03-16 23:05:00,29.2,14.6,29.54,North,0,0.0,0.0,54,0.00,,,0.01,WUHU216HW,2013-03-17 03:05:00,
2013-03-16 23:10:00,29.0,14.4,29.54,North,0,0.0,0.0,54,0.00,,,0.01,WUHU216HW,2013-03-17 03:10:00,
2013-03-16 23:16:00,28.6,14.0,29.54,North,0,0.0,0.0,54,0.00,,,0.01,WUHU216HW,2013-03-17 03:16:00,
2013-03-16 23:21:00,28.4,13.9,29.55,North,0,0.0,0.0,54,0.00,,,0.01,WUHU216HW,2013-03-17 03:21:00,
2013-03-16 23:26:00,28.4,13.9,29.55,North,0,0.0,0.0,54,0.00,,,0.01,WUHU216HW,2013-03-17 03:26:00,
2013-03-16 23:31:00,28.3,14.1,29.55,North,0,0.0,0.0,55,0.00,,,0.01,WUHU216HW,2013-03-17 03:31:00,
2013-03-16 23:36:00,28.1,14.0,29.55,North,0,0.0,0.0,55,0.00,,,0.01,WUHU216HW,2013-03-17 03:36:00,
2013-03-16 23:42:00,27.9,14.2,29.55,North,0,0.0,0.0,56,0.00,,,0.01,WUHU216HW,2013-03-17 03:42:00,
2013-03-16 23:47:00,27.7,14.1,29.55,North,0,0.0,0.0,56,0.00,,,0.01,WUHU216HW,2013-03-17 03:47:00,
2013-03-16 23:52:00,27.7,14.1,29.55,North,0,0.0,0.0,56,0.00,,,0.01,WUHU216HW,2013-03-17 03:52:00,
2013-03-16 23:57:00,27.7,14.1,29.56,North,0,0.0,0.0,56,0.00,,,0.01,WUHU216HW,2013-03-17 03:57:00,